Regional Weather Roundup
Issued by NWS

Home | Current Version | Previous Version | Text Only | Print | Product List | Glossary On
Versions: 1 2 3 4 5 6 7 8 9 10 11 12 13 14 15 16 17 18 19 20 21 22 23 24 25 26 27 28 29 30 31 32 33 34 35 36 37 38 39 40 41 42 43 44 45 46 47 48 49 50
000
ASUS44 KFWD 221915
RWRTX
NORTH TEXAS HOURLY WEATHER ROUNDUP
NATIONAL WEATHER SERVICE FORT WORTH TX
100 PM CST THU FEB 22 2018

NOTE: "FAIR" INDICATES FEW OR NO CLOUDS BELOW 12,000 FEET WITH NO
SIGNIFICANT WEATHER AND/OR OBSTRUCTIONS TO VISIBILITY.

TXZ118-119-222000-
DALLAS/FORT WORTH METROPLEX

CITY           SKY/WX    TMP DP  RH WIND       PRES   REMARKS
DFW AIRPORT    FOG       39  37  92 N8        30.23F VSB 1/2 WCI  33
DALLAS LOVE    DRIZZLE   39  38  96 NW7       30.24F FOG     WCI  34
FTW MEACHAM    CLOUDY    37  36  96 NW8       30.24F FOG     WCI  31
DAL-EXECUTIVE  CLOUDY    39  38  96 NW9       30.23F FOG     WCI  33
FTW-ALLIANCE   CLOUDY    36  35  96 NW6       30.24F FOG     WCI  31
FTW-NAS-JRB    CLOUDY    36  34  92 NW8       30.25F FOG     WCI  30
FTW-SPINKS     FOG       36  36 100 NW6       30.25F VSB 1   WCI  31
ARLINGTON      CLOUDY    36  36 100 NW8       30.24F FOG     WCI  30
GRAND PRAIRIE  RAIN      37  37 100 CALM      30.27F
ADDISON        LGT RAIN  37  36  93 NW6       30.24F VSB 1   WCI  33
MESQUITE       DRIZZLE   39  37  93 NW5       30.25F FOG     WCI  36
LANCASTER      CLOUDY    39  38  97 NW7       30.25F FOG     WCI  34
$$

TXZ091>094-102>105-117-120-121-131>134-222000-
NORTH CENTRAL TEXAS

CITY           SKY/WX    TMP DP  RH WIND       PRES   REMARKS
SHRMAN/DENISON CLOUDY    35  35  97 W6        30.26  FOG     WCI  30
GAINESVILLE    LGT SNOW  32  32  99 CALM      30.26F VSB 1
BOWIE          MIX PCPN  32  31  98 NW9       30.25F WCI  24
BRIDGEPORT     LGT RAIN  32  32 100 CALM      30.28F
DECATUR        CLOUDY    32  32  99 CALM      30.23F FOG
DENTON         CLOUDY    35  35 100 N9        30.25F FOG     WCI  28
MCKINNEY       LGT RAIN  38  38 100 NW8       30.24F VSB 1   WCI  32
BONHAM         MIX PCPN  38  38  99 NW8       30.24F FOG     WCI  32
GREENVILLE     CLOUDY    46  46 100 CALM      30.23F
ROCKWALL       DRIZZLE   40  40 100 NW7       30.25F WCI  35
TERRELL        LGT RAIN  43  41  93 W3        30.23F
WAXAHACHIE     CLOUDY    38  38 100 NW5       30.25F FOG     WCI  35
CLEBURNE       CLOUDY    36  36 100 NW8       30.25F FOG     WCI  29
GRANBURY       CLOUDY    35  34  95 W10       30.28S FOG     WCI  27
$$

TXZ083>090-098>101-113>116-127>130-139>142-154-155-222000-
WESTERN NORTH TEXAS

CITY           SKY/WX    TMP DP  RH WIND       PRES   REMARKS
WICHITA FALLS  CLOUDY    31  30  96 N5        30.26F WCI  26
WF-KICKAPOO    CLOUDY    31  30  95 CALM      30.29F FOG
VERNON         CLOUDY    33  30  88 NW3       30.26F
ABILENE        CLOUDY    30  30 100 N3        30.24F FOG
ABILENE-DYESS  CLOUDY    31  30  99 NW3       30.24F
GRAHAM           N/A     32  32 100 CALM      30.26F
BRECKENRIDGE   CLOUDY    33  33  99 N3        30.26F FOG
CISCO          CLOUDY    30  30 100 NW6       30.25F FOG     WCI  24
EASTLAND       CLOUDY    30  29  96 N7        30.25F FOG     WCI  23
RANGER         LGT SNOW  31  31 100 CALM      30.25F
MINERAL WELLS  MIX PCPN  32  31  96 NW10      30.25S FOG     WCI  24
STEPHENVILLE   CLOUDY    33  32  96 CALM      30.27F
COMANCHE       CLOUDY    33  33 100 NW8       30.26F FOG     WCI  25
BROWNWOOD      FAIR      32  32 100 MISG      30.25F FOG
COLEMAN        CLOUDY    33  32  96 N5        30.25F WCI  28
$$

TXZ143>147-156>162-174-175-222000-
CENTRAL TEXAS

CITY           SKY/WX    TMP DP  RH WIND       PRES   REMARKS
WACO           CLOUDY    39  37  92 N7        30.25F FOG     WCI  34
WACO-TSTC      CLOUDY    39  39 100 NW3       30.25F FOG
WACO-MCGREGOR  CLOUDY    38  37  97 N6        30.25F WCI  33
HILLSBORO      CLOUDY    38  38 100 NW5       30.24F FOG     WCI  35
CORSICANA      CLOUDY    41  41 100 CALM      30.24F FOG
MEXIA          CLOUDY    40  39  97 N5        30.22F FOG     WCI  37
HEARNE         CLOUDY    42  42 100 W5        30.25F FOG     WCI  39
CAMERON        CLOUDY    40  39  97 NW6       30.25F FOG     WCI  36
TEMPLE         LGT RAIN  37  37 100 NW8       30.25F FOG     WCI  31
KILLEEN        CLOUDY    37  37 100 NW7       30.22F WCI  32
KILLEEN-SKYLRK LGT RAIN  37  37 100 NW8       30.25F FOG     WCI  31
FORT HOOD      FOG       39  39 100 NW7       30.26R VSB 1   WCI  34
GATESVILLE     FOG       37  37 100 NW6       30.27S VSB 1   WCI  33
HAMILTON       CLOUDY    35  35 100 NW9       30.24F FOG     WCI  27
LAMPASAS       CLOUDY    37  36  96 NW5       30.23F FOG     WCI  33
$$

TXZ095>097-106>112-122>126-135>138-148>153-164>167-222000-
EAST TEXAS

CITY           SKY/WX    TMP DP  RH WIND       PRES   REMARKS
PARIS          TSTM      46  46 100 SE10      30.21R FOG
SULPHUR SPRNGS CLOUDY    45  45 100 E8        30.23F
MOUNT PLEASANT CLOUDY    49  48  97 NE7       30.25F
GILMER         CLOUDY    50  50 100 NE3       30.22F FOG
MINEOLA        CLOUDY    46  45  93 NE5       30.22F FOG
TYLER          LGT RAIN  48  31  51 E5        30.21F VSB 3/4
LONGVIEW       FOG       54  54 100 NE5       30.21F VSB 1
MARSHALL       CLOUDY    53  51  94 E5        30.25F
ATHENS         CLOUDY    41  41 100 CALM      30.21F FOG
PALESTINE      CLOUDY    47  47 100 CALM      30.23F FOG
JACKSONVILLE   DRZL/FOG  51  51 100 CALM      30.22F VSB 1/2
HENDERSON      LGT RAIN  55  54  98 CALM      30.22F
CENTER         CLOUDY    57  55  95 E3        30.22F
NACOGDOCHES    LGT RAIN  58  57  97 CALM      30.22F FOG
LUFKIN         CLOUDY    61  61 100 SE5       30.20F FOG
$$

SUPPLEMENTAL OBSERVATIONS (NWS FORT WORTH AREA)

CITY           SKY/WX    TMP DP  RH WIND       PRES   REMARKS
DENISON DAM      N/A     36  36 100 NW9         N/A  WCI  29
CADDO GRASSLND   N/A     43  41  93 W3          N/A
PAT MAYSE LAKE   N/A     45  43  93 E2          N/A
GREENVILLE       N/A     45  43  93 NW1         N/A
CEDAR HILL       N/A     37  36  93 CALM        N/A
GRANBURY         N/A     34  32  93 NW10        N/A  WCI  26
MCGREGOR         N/A     37  34  87 NW3         N/A
TEMPLE           N/A     37  36  93 NW9         N/A  WCI  31
LAKE LIMESTONE   N/A     45  43  93 NW3         N/A
ATHENS           N/A     46  45  93 S1          N/A
$$

SUPPLEMENTAL OBSERVATIONS (NWS NORMAN AREA)

CITY           SKY/WX    TMP DP  RH WIND       PRES   REMARKS
GOODLETT         N/A     31  29  91 NW3       30.24F
ODELL            N/A     31  31  99 CALM      30.26F
CROWELL        MIX PCPN  32  31  95 CALM      30.26F
KNOX CITY      LGT RAIN  32  29  89 NW1       30.27F
SEYMOUR          N/A     31  30  94 CALM      30.27F
MILLERS CREEK    N/A     32  28  86 CALM        N/A
$$

SUPPLEMENTAL OBSERVATIONS (NWS SAN ANGELO AREA)

CITY           SKY/WX    TMP DP  RH WIND       PRES   REMARKS
WEINERT          N/A     31  29  92 CALM      30.27F
HASKELL          N/A     31  31  99 CALM      30.27S
THROCKMORTON     N/A     31  31  97 CALM      30.27F
STAMFORD         N/A     31  29  94 NW7       30.27F WCI  24
CLYDE            N/A     31  31  99 CALM      30.24F
HAMBY            N/A     32  30  93 N2          N/A
IVIE RESERVOIR   N/A     36  32  87 NW2         N/A
COLORADO BEND    N/A     36  34  93 W5          N/A  WCI  32
$$

SUPPLEMENTAL OBSERVATIONS (NWS SHREVEPORT AREA)

CITY           SKY/WX    TMP DP  RH WIND       PRES   REMARKS
CLARKSVILLE      N/A     46  45  93 E12         N/A
TEXARKANA        N/A     46  45  93 E3          N/A
LINDEN           N/A     48  46  93 NE2         N/A
CADDO LAKE       N/A     52  50  93 NE1         N/A
GILMER           N/A     52  50  93 NE5         N/A
HENDERSON        N/A     55  54  94 E3          N/A
LUFKIN           N/A     61  59  94 MISG        N/A
N SABINE NF      N/A     57  55  94 MISG        N/A
S SABINE NF      N/A     70  66  88 E2          N/A
$$

SUPPLEMENTAL OBSERVATIONS ARE A COLLECTION OF AUTOMATED INSTRUMENTS
THAT ARE MAINTAINED BY A VARIETY OF FEDERAL AND STATE AGENCIES.
CERTAIN ELEMENTS...SUCH AS HUMIDITY VALUES AND SUSTAINED WIND
SPEEDS...MAY BE APPROXIMATED.





USA.gov is the U.S. government's official web portal to all federal, state and local government web resources and services.